Location: Amsterdam
(30.7274°N, 84.4357°W)
Time: 01:10:20
(UTC+00:00)

Courier 1B Rocket - Pass Details

Date: 16 February 2026
Orbit: 920 x 1201 km, 28.2° (Epoch: 10 March)

Event Time Altitude Azimuth Distance (km) Brightness Sun altitude
Rises 00:14:54 0° 228° (SW) 3,539 8.9 -11.2°
Reaches altitude 10° 00:17:44 10° 218° (SW) 2,603 7.9 -11.8°
Maximum altitude 00:23:11 32° 157° (SSE) 1,548 5.9 -13.0°
Enters shadow 00:27:16 17° 105° (ESE) 2,236 6.3 -13.8°
Drops below altitude 10° 00:28:49 10° 96° (E) 2,698 - -14.2°
Sets 00:31:48 0° 87° (E) 3,688 - -14.8°
